User: anonymous   Login
Location: Kott?ru
(16.6209°N, 80.6208°E)
Time: 15:16:21
(UTC+00:00)
Language:

Okean-O - Orbit

View from above orbital plane
View from above orbital plane
View from above satellite
View from above satellite

Ground track
Ground track

The orbit data is extracted from the following two-line orbital elements,

1 25860U 99039A   20339.58970773  .00000100  00000-0  21906-4 0  9997
2 25860  98.2027   1.4550 0001760  78.6100 281.5307 14.76695708150625
Epoch (UTC): 04 December 2020 14:09:10
Eccentricity: 0.0001760
inclination: 98.2027°
perigee height: 638 km
apogee height: 641 km
right ascension of ascending node: 1.4550°
argument of perigee: 78.6100°
revolutions per day: 14.76695708
mean anomaly at epoch: 281.5307°
orbit number at epoch: 15062

The dashed part of the orbit path shows where the satellite is in the earth's shadow,  

DLR